sat.trackr.live / text

‹ back to catalog

STARLINK-33852

NORAD 63644 · 2025-083L

PAYLOAD ACTIVE UNKNOWN

§ Identity

Operator
Country
US
Launch date
2025-04-25
Launch site
AFETR
Launch vehicle
Mass (kg)
RCS (m²)

Purposes: comms

External: N2YO · Heavens-Above · Gunter

§ Orbital elements

Epoch: 2026-09-20T06:39:12.277152Z

Period
94.27 min
Inclination
43.0038°
Eccentricity
0.0002334
Mean motion
15.27591538 rev/d
Perigee alt
481.4 km
Apogee alt
484.6 km
Semi-major
6,861.2 km
B*
5.3728e-4
RAAN
346.5329°
Arg perigee
281.6234°
Mean anomaly
78.4355°
Rev number
7,985

§ Raw data

STARLINK-338521 63644U 25083L   26263.27722543  .00014557  00000+0  53728-3 0  99912 63644  43.0038 346.5329 0002334 281.6234  78.4355 15.27591538 79850

JSON: /api/v1/satellites/63644 · /tle

For live sub-satellite position, see the globe view (requires WebGL).

§ Visibility from observer

Set your observer location to see the next 7 days of passes ≥ 10°. The values pass through the URL so the page stays shareable.

No JS? Fill the form by hand. The geolocation button needs JavaScript.